Location: Praha
(50.0830°N, 14.4670°E)
Time: 06:10:24
(UTC+01:00)

ISS - Pass Details

Date: 02 December 2025
Orbit: 416 x 421 km, 51.6° (Epoch: 07 December)

Event Time Altitude Azimuth Distance (km) Brightness Sun altitude
Rises 17:35:30 0° 282° (WNW) 2,368 1.2 -14.2°
Reaches altitude 10° 17:38:18 10° 257° (WSW) 1,498 0.5 -14.7°
Maximum altitude 17:40:12 14° 222° (SW) 1,255 -0.5 -15.0°
Drops below altitude 10° 17:42:06 10° 187° (S) 1,490 -0.7 -15.3°
Sets 17:44:53 0° 162° (SSE) 2,347 0.0 -15.7°
